Almo, KY

1:59 PM CST on February 08, 2016 (GMT -0600)
Kyle-Oakley

Weather History for KCEY - February, 2014

Change the Weather History Date:

Monday, February 17, 2014

  Actual Average (KPAH) Record (KPAH)
Temperature  
Mean Temperature 42 °F 40 °F  
Max Temperature 55 °F 50 °F 70 °F (1986)
Min Temperature 28 °F 30 °F -5 °F (1958)
Degree Days  
Heating Degree Days 24 25  
Month to date heating degree days 465  
Since 1 July heating degree days 3038  
Cooling Degree Days 0 0  
Month to date cooling degree days 0  
Year to date cooling degree days 0  
Moisture  
Dew Point 35 °F    
Average Humidity 82    
Maximum Humidity 100    
Minimum Humidity 65    
Precipitation  
Precipitation 0.10 in 0.13 in 2.88 in (1976)
Month to date precipitation 2.38  
Year to date precipitation 6.06  
Snow  
Snow 0.00 in 0.10 in 1.60 in (1987)
Month to date snowfall 2.1  
Since 1 July snowfall 7.4  
Snow Depth -    
Sea Level Pressure  
Sea Level Pressure 30.03 in    
Wind  
Wind Speed 10 mph (SSW)    
Max Wind Speed 23 mph    
Max Gust Speed 31 mph    
Visibility 8 miles    
Events      
T = Trace of Precipitation, MM = Missing Value Source: NWS Daily Summary

Daily Weather History Graph

Daily Weather History Graph

Search for Another Location

Airport or City:

Trip Planner

Search our weather history database for the weather conditions in past years. The results will help you decide how hot, cold, wet, or windy it might be!

Date:

Astronomy

Feb. 17, 2014 Rise Set
Actual Time 6:39 AM CST 5:36 PM CST
Civil Twilight 6:12 AM CST 6:02 PM CST
Nautical Twilight 5:42 AM CST 6:32 PM CST
Astronomical Twilight 5:12 AM CST 7:02 PM CST
Moon 8:24 PM CST (2/17) 7:44 AM CST (2/17)
Length of Visible Light 11h 49m
Length of Day
10h 56m
Waning Gibbous, 93% of the Moon is Illuminated
Feb 17
Waning Gibbous
Feb 22
Last Quarter
Mar 1
New
Mar 8
First Quarter
Mar 16
Full

Hourly Weather History & Observations

Time (CST) Temp. Windchill Dew Point Humidity Pressure Visibility Wind Dir Wind Speed Gust Speed Precip Events Conditions
12:15 AM 28.4 °F 19.7 °F 26.6 °F 93% 30.16 in 7.0 mi East 9.2 mph - N/A   Clear
12:35 AM 28.4 °F 19.7 °F 26.6 °F 93% 30.17 in 7.0 mi East 9.2 mph - N/A   Clear
12:55 AM 28.4 °F 21.2 °F 26.6 °F 93% 30.17 in 7.0 mi East 6.9 mph - N/A   Clear
1:15 AM 30.2 °F 24.3 °F 26.6 °F 86% 30.17 in 7.0 mi East 5.8 mph - N/A   Clear
1:35 AM 28.4 °F 20.4 °F 26.6 °F 93% 30.16 in 7.0 mi East 8.1 mph - N/A   Clear
1:55 AM 30.2 °F 21.9 °F 26.6 °F 86% 30.15 in 7.0 mi East 9.2 mph - N/A   Clear
2:15 AM 28.4 °F 21.2 °F 26.6 °F 93% 30.15 in 7.0 mi East 6.9 mph - N/A   Clear
2:35 AM 30.2 °F 23.4 °F 26.6 °F 86% 30.14 in 7.0 mi ESE 6.9 mph - N/A   Clear
2:55 AM 30.2 °F 21.9 °F 26.6 °F 86% 30.13 in 7.0 mi East 9.2 mph - N/A   Clear
3:15 AM 30.2 °F 21.9 °F 26.6 °F 86% 30.11 in 7.0 mi East 9.2 mph - N/A   Clear
3:35 AM 30.2 °F 22.6 °F 26.6 °F 86% 30.11 in 7.0 mi East 8.1 mph - N/A   Clear
3:55 AM 30.2 °F 21.9 °F 26.6 °F 86% 30.11 in 6.0 mi East 9.2 mph - N/A   Clear
4:15 AM 30.2 °F 22.6 °F 26.6 °F 86% 30.11 in 6.0 mi East 8.1 mph - N/A   Clear
4:35 AM 30.2 °F 22.6 °F 26.6 °F 86% 30.10 in 6.0 mi ESE 8.1 mph - N/A   Clear
4:55 AM 30.2 °F 22.6 °F 26.6 °F 86% 30.10 in 6.0 mi SE 8.1 mph - N/A   Clear
5:15 AM 30.2 °F 21.9 °F 26.6 °F 86% 30.07 in 7.0 mi ESE 9.2 mph 16.1 mph N/A   Clear
5:35 AM 30.2 °F 23.4 °F 26.6 °F 86% 30.09 in 7.0 mi SE 6.9 mph - N/A   Mostly Cloudy
5:55 AM 32.0 °F 23.6 °F 26.6 °F 80% 30.07 in 7.0 mi SE 10.4 mph 16.1 mph N/A   Overcast
6:15 AM 32.0 °F 23.0 °F 26.6 °F 80% 30.05 in 7.0 mi SE 11.5 mph 16.1 mph N/A   Overcast
6:35 AM 32.0 °F 25.6 °F 28.4 °F 87% 30.04 in 7.0 mi SE 6.9 mph - N/A   Overcast
6:55 AM 32.0 °F 24.8 °F 28.4 °F 87% 30.05 in 6.0 mi ESE 8.1 mph 16.1 mph N/A   Overcast
7:15 AM 32.0 °F 23.6 °F 28.4 °F 87% 30.03 in 6.0 mi SE 10.4 mph - N/A   Overcast
7:35 AM 32.0 °F 24.2 °F 28.4 °F 87% 30.02 in 7.0 mi SE 9.2 mph 16.1 mph N/A   Overcast
7:55 AM 33.8 °F 25.8 °F 28.4 °F 81% 30.02 in 7.0 mi SE 10.4 mph - N/A   Overcast
8:15 AM 35.6 °F 28.6 °F 28.4 °F 75% 30.01 in 8.0 mi SE 9.2 mph - N/A   Overcast
8:35 AM 35.6 °F 29.9 °F 30.2 °F 81% 30.02 in 9.0 mi SE 6.9 mph - N/A   Overcast
8:55 AM 37.4 °F 30.8 °F 30.2 °F 75% 29.99 in 10.0 mi SSE 9.2 mph - N/A   Overcast
9:15 AM 37.4 °F 28.9 °F 32.0 °F 81% 29.96 in 3.0 mi SE 13.8 mph - N/A   Overcast
9:35 AM 37.4 °F 30.3 °F 33.8 °F 87% 29.95 in 7.0 mi SSE 10.4 mph 18.4 mph N/A   Overcast
9:55 AM 41.0 °F 34.7 °F 33.8 °F 76% 29.94 in 10.0 mi SSE 10.4 mph 20.7 mph N/A   Overcast
10:15 AM 42.8 °F 35.8 °F 35.6 °F 76% 29.93 in 10.0 mi South 13.8 mph 18.4 mph N/A   Overcast
10:35 AM 44.6 °F 38.4 °F 35.6 °F 71% 29.92 in 10.0 mi South 12.7 mph 20.7 mph N/A   Mostly Cloudy
10:55 AM 44.6 °F 38.4 °F 37.4 °F 76% 29.91 in 10.0 mi South 12.7 mph 20.7 mph N/A   Overcast
11:15 AM 46.4 °F 41.1 °F 39.2 °F 76% 29.89 in 10.0 mi South 11.5 mph - N/A   Overcast
11:35 AM 46.4 °F 40.7 °F 41.0 °F 81% 29.85 in 10.0 mi South 12.7 mph 18.4 mph N/A   Overcast
11:55 AM 50.0 °F - 41.0 °F 71% 29.84 in 10.0 mi South 12.7 mph 18.4 mph N/A   Mostly Cloudy
12:15 PM 53.6 °F - 44.6 °F 72% 29.81 in 10.0 mi South 13.8 mph 21.9 mph N/A   Scattered Clouds
12:35 PM 55.4 °F - 48.2 °F 77% 29.81 in 10.0 mi SSW 11.5 mph 17.3 mph N/A   Mostly Cloudy
12:55 PM 55.4 °F - 50.0 °F 82% 29.80 in 4.0 mi SSW 12.7 mph 20.7 mph 0.01 in   Overcast
1:15 PM 53.6 °F - 50.0 °F 88% 29.81 in 3.0 mi SSW 13.8 mph 19.6 mph 0.01 in   Overcast
1:35 PM 53.6 °F - 50.0 °F 88% 29.81 in 10.0 mi SW 10.4 mph 20.7 mph 0.01 in   Overcast
1:55 PM 53.6 °F - 51.8 °F 94% 29.82 in 2.5 mi SW 10.4 mph 18.4 mph 0.03 in   Overcast
2:15 PM 53.6 °F - 53.6 °F 100% 29.85 in 1.5 mi West 17.3 mph 24.2 mph 0.05 in   Overcast
2:35 PM 53.6 °F - 53.6 °F 100% 29.87 in 1.8 mi West 21.9 mph 29.9 mph 0.06 in   Overcast
2:55 PM 51.8 °F - 50.0 °F 94% 29.90 in 7.0 mi West 18.4 mph 27.6 mph 0.06 in   Overcast
3:15 PM 50.0 °F - 48.2 °F 94% 29.93 in 8.0 mi WNW 23.0 mph 31.1 mph N/A   Overcast
3:35 PM 50.0 °F - 44.6 °F 82% 29.95 in 10.0 mi WNW 16.1 mph 27.6 mph N/A   Mostly Cloudy
3:55 PM 50.0 °F - 44.6 °F 82% 29.96 in 9.0 mi WNW 18.4 mph 27.6 mph N/A   Partly Cloudy
4:15 PM 50.0 °F - 44.6 °F 82% 29.97 in 10.0 mi WNW 16.1 mph 21.9 mph N/A   Clear
4:35 PM 50.0 °F - 42.8 °F 76% 29.98 in 10.0 mi West 11.5 mph 18.4 mph N/A   Clear
4:55 PM 48.2 °F - 41.0 °F 76% 29.99 in 10.0 mi West 13.8 mph - N/A   Clear
5:15 PM 48.2 °F - 41.0 °F 76% 30.00 in 10.0 mi West 11.5 mph - N/A   Clear
5:35 PM 46.4 °F 41.9 °F 41.0 °F 81% 30.01 in 10.0 mi West 9.2 mph - N/A   Clear
5:55 PM 44.6 °F 38.8 °F 41.0 °F 87% 30.03 in 10.0 mi West 11.5 mph - N/A   Clear
6:15 PM 44.6 °F 39.2 °F 39.2 °F 81% 30.04 in 10.0 mi West 10.4 mph - N/A   Clear
6:35 PM 46.4 °F 41.1 °F 39.2 °F 76% 30.06 in 10.0 mi West 11.5 mph 17.3 mph N/A   Clear
6:55 PM 44.6 °F 39.7 °F 39.2 °F 81% 30.07 in 10.0 mi West 9.2 mph - N/A   Clear
7:15 PM 44.6 °F 40.2 °F 37.4 °F 76% 30.08 in 10.0 mi West 8.1 mph - N/A   Clear
7:35 PM 44.6 °F 40.2 °F 37.4 °F 76% 30.08 in 10.0 mi West 8.1 mph - N/A   Clear
7:55 PM 42.8 °F 38.0 °F 37.4 °F 81% 30.10 in 10.0 mi West 8.1 mph - N/A   Clear
8:15 PM 42.8 °F 36.6 °F 35.6 °F 76% 30.10 in 10.0 mi WNW 11.5 mph 18.4 mph N/A   Clear
8:35 PM 41.0 °F 35.8 °F 33.8 °F 76% 30.11 in 10.0 mi West 8.1 mph - N/A   Clear
8:55 PM 41.0 °F 35.8 °F 35.6 °F 81% 30.12 in 10.0 mi WSW 8.1 mph - N/A   Clear
9:15 PM 42.8 °F 38.6 °F 35.6 °F 76% 30.12 in 10.0 mi WSW 6.9 mph - N/A   Clear
9:35 PM 41.0 °F 35.8 °F 35.6 °F 81% 30.12 in 10.0 mi WSW 8.1 mph - N/A   Clear
9:55 PM 41.0 °F 35.8 °F 32.0 °F 70% 30.12 in 10.0 mi West 8.1 mph - N/A   Clear
10:15 PM 41.0 °F 36.4 °F 32.0 °F 70% 30.13 in 10.0 mi West 6.9 mph - N/A   Clear
10:35 PM 41.0 °F 36.4 °F 32.0 °F 70% 30.12 in 10.0 mi West 6.9 mph - N/A   Clear
10:55 PM 41.0 °F 35.8 °F 32.0 °F 70% 30.12 in 10.0 mi West 8.1 mph - N/A   Clear
11:15 PM 41.0 °F 37.1 °F 30.2 °F 65% 30.13 in 10.0 mi West 5.8 mph - N/A   Clear
11:35 PM 39.2 °F 35.9 °F 28.4 °F 65% 30.13 in 10.0 mi West 4.6 mph - N/A   Clear
11:55 PM 37.4 °F 33.8 °F 30.2 °F 75% 30.13 in 10.0 mi West 4.6 mph - N/A   Clear